Location: Unspecified
(0.0000°N, 0.0000°E)
Time: 17:14:24
(UTC+00:00)

ERS 20 - Visible Passes

Search period start: 15 May 2026 00:00
Search period end: 25 May 2026 00:00
Orbit: 10205 x 109617 km, 35.1° (Epoch: 11 February)

Date Brightness Start Highest point End Pass type
(mag) Time Alt. Az. Time Alt. Az. Time Alt. Az.
15 May ? 18:47:09 10° SE 00:55:45 59° S 06:31:33 10° WSW daylight
16 May ? 22:09:08 10° E 04:26:55 86° NNE 09:21:00 10° NE visible
17 May ? 18:51:17 10° SE 00:54:24 60° S 06:29:18 10° WSW daylight
18 May ? 22:08:54 10° E 04:28:15 81° NNE 08:22:15 10° NE visible
19 May ? 18:53:50 10° ESE 00:52:43 60° S 06:26:53 10° WSW daylight
20 May ? 22:09:26 10° E 04:17:18 74° NE 07:24:14 10° NE visible
21 May ? 18:55:13 10° ESE 00:50:45 61° S 06:24:21 10° WSW daylight
22 May ? 22:10:59 10° E 03:49:12 65° NE 06:26:19 10° NE visible
23 May ? 18:55:42 10° ESE 00:48:34 62° S 06:21:43 10° WSW daylight
